START_TIME,STEP,MOV.,AL01,t_acc.,AL02,t_acc.,E37,t_acc.,H21,t_acc.
1979-07-05 12:00:35.040 ,0,0,1.,24.0,0.,24.0,1.,24.0,0.,24.0
1979-07-05 12:00:59.040 ,1,1,0.,24.0,0.,24.0,0.,24.0,0.,24.0
1979-07-05 12:01:23.040 ,1,0,1.,24.0,0.,24.0,0.,24.0,0.,24.0
1979-07-05 12:01:47.040 ,2,1,0.,24.0,0.,24.0,0.,24.0,0.,24.0
1979-07-05 12:02:11.040 ,2,0,0.,24.0,0.,24.0,1.,24.0,0.,24.0
1979-07-05 12:02:35.040 ,3,1,0.,24.0,1.,24.0,0.,24.0,0.,24.0
1979-07-05 12:02:59.040 ,3,0,1.,24.0,0.,24.0,0.,24.0,0.,24.0
1979-07-05 12:03:23.040 ,4,1,1.,24.0,0.,24.0,0.,24.0,0.,24.0
1979-07-05 12:03:47.040 ,4,0,1.,24.0,0.,24.0,2.,24.0,0.,24.0
1979-07-05 12:04:11.040 ,5,1,0.,24.0,0.,24.0,0.,24.0,0.,24.0
1979-07-05 12:04:35.040 ,5,0,0.,24.0,0.,24.0,0.,24.0,0.,24.0
1979-07-05 12:04:59.040 ,6,1,0.,24.0,0.,24.0,1.,24.0,0.,24.0
1979-07-05 12:05:23.040 ,6,0,1.,24.0,0.,24.0,0.,24.0,0.,24.0
1979-07-05 12:05:47.040 ,7,1,5.,24.0,0.,24.0,0.,24.0,0.,24.0
1979-07-05 12:06:11.040 ,7,0,32.,24.0,0.,24.0,0.,24.0,0.,24.0
1979-07-05 12:06:35.040 ,7,1,34.,24.0,0.,24.0,0.,24.0,0.,24.0
1979-07-05 12:06:59.040 ,7,0,22.,24.0,0.,24.0,2.,24.0,0.,24.0
1979-07-05 12:07:23.040 ,6,1,22.,24.0,0.,24.0,0.,24.0,0.,24.0
1979-07-05 12:07:47.040 ,6,0,0.,24.0,0.,24.0,0.,24.0,0.,24.0
1979-07-05 12:08:11.040 ,5,1,0.,24.0,0.,24.0,0.,24.0,0.,24.0
1979-07-05 12:08:35.040 ,5,0,0.,24.0,0.,24.0,0.,24.0,0.,24.0
1979-07-05 12:08:59.040 ,4,1,0.,24.0,1.,24.0,0.,24.0,0.,24.0
1979-07-05 12:09:23.040 ,4,0,1.,24.0,0.,24.0,1.,24.0,0.,24.0
1979-07-05 12:09:47.040 ,3,1,0.,24.0,0.,24.0,0.,24.0,0.,24.0
1979-07-05 12:10:11.040 ,3,0,1.,24.0,0.,24.0,1.,24.0,0.,24.0
1979-07-05 12:10:35.040 ,2,1,0.,24.0,0.,24.0,0.,24.0,0.,24.0
1979-07-05 12:10:59.040 ,2,0,0.,24.0,0.,24.0,0.,24.0,0.,24.0
1979-07-05 12:11:23.040 ,1,1,0.,24.0,0.,24.0,0.,24.0,0.,24.0
1979-07-05 12:11:47.040 ,1,0,0.,24.0,0.,24.0,1.,24.0,0.,24.0
1979-07-05 12:12:11.040 ,0,1,0.,24.0,0.,24.0,0.,24.0,0.,24.0
1979-07-05 12:12:35.040 ,0,0,0.,24.0,0.,24.0,0.,24.0,0.,24.0
1979-07-05 12:12:59.040 ,0,1,0.,24.0,0.,24.0,0.,24.0,0.,24.0
1979-07-05 12:13:23.040 ,0,0,0.,24.0,0.,24.0,0.,24.0,0.,24.0
1979-07-05 12:13:47.040 ,1,1,0.,24.0,0.,24.0,0.,24.0,0.,24.0
1979-07-05 12:14:11.040 ,1,0,1.,24.0,0.,24.0,0.,24.0,0.,24.0
1979-07-05 12:14:35.040 ,2,1,0.,24.0,1.,24.0,0.,24.0,0.,24.0
1979-07-05 12:14:59.040 ,2,0,0.,24.0,1.,24.0,0.,24.0,0.,24.0
1979-07-05 12:15:23.040 ,3,1,1.,24.0,0.,24.0,0.,24.0,0.,24.0
1979-07-05 12:15:47.040 ,3,0,0.,24.0,0.,24.0,0.,24.0,0.,24.0
1979-07-05 12:16:11.040 ,4,1,0.,24.0,0.,24.0,0.,24.0,0.,24.0
1979-07-05 12:16:35.040 ,4,0,2.,24.0,0.,24.0,0.,24.0,0.,24.0
1979-07-05 12:16:59.040 ,5,1,0.,24.0,0.,24.0,0.,24.0,0.,24.0
1979-07-05 12:17:23.040 ,5,0,1.,24.0,0.,24.0,0.,24.0,0.,24.0
1979-07-05 12:17:47.040 ,6,1,0.,24.0,0.,24.0,0.,24.0,0.,24.0
1979-07-05 12:18:11.040 ,6,0,0.,24.0,0.,24.0,0.,24.0,0.,24.0
1979-07-05 12:18:35.040 ,7,0,10.,24.0,0.,24.0,2.,24.0,0.,24.0
1979-07-05 12:18:59.040 ,7,0,37.,24.0,0.,24.0,0.,24.0,0.,24.0
1979-07-05 12:19:23.040 ,5,1,22.,24.0,0.,24.0,0.,24.0,0.,24.0
1979-07-05 12:19:47.040 ,1,1,0.,24.0,0.,24.0,0.,24.0,0.,24.0
1979-07-05 12:20:11.040 ,2,1,0.,24.0,0.,24.0,0.,24.0,0.,24.0
1979-07-05 12:20:35.040 ,6,1,0.,24.0,0.,24.0,0.,24.0,0.,24.0
1979-07-05 12:20:59.040 ,5,1,12.,24.0,0.,24.0,0.,24.0,0.,24.0
1979-07-05 12:21:23.040 ,1,1,1.,24.0,0.,24.0,0.,24.0,0.,24.0
1979-07-05 12:21:47.040 ,2,1,0.,24.0,0.,24.0,0.,24.0,0.,24.0
1979-07-05 12:22:11.040 ,6,1,0.,24.0,0.,24.0,2.,24.0,0.,24.0
1979-07-05 12:22:35.040 ,5,1,14.,24.0,0.,24.0,2.,24.0,0.,24.0
1979-07-05 12:22:59.040 ,1,1,0.,24.0,0.,24.0,0.,24.0,0.,24.0
1979-07-05 12:23:23.040 ,2,1,0.,24.0,0.,24.0,0.,24.0,0.,24.0
1979-07-05 12:23:47.040 ,6,1,1.,24.0,0.,24.0,0.,24.0,0.,24.0
1979-07-05 12:24:11.040 ,5,1,17.,24.0,0.,24.0,0.,24.0,0.,24.0
1979-07-05 12:24:35.040 ,1,1,0.,24.0,0.,24.0,0.,24.0,0.,24.0
1979-07-05 12:24:59.040 ,2,1,0.,24.0,0.,24.0,0.,24.0,0.,24.0
1979-07-05 12:25:23.040 ,6,1,0.,24.0,0.,24.0,1.,24.0,0.,24.0
1979-07-05 12:25:47.040 ,5,1,14.,24.0,0.,24.0,0.,24.0,0.,24.0
1979-07-05 12:26:11.040 ,1,1,0.,24.0,1.,24.0,0.,24.0,0.,24.0
1979-07-05 12:26:35.040 ,2,1,0.,24.0,0.,24.0,0.,24.0,0.,24.0
1979-07-05 12:26:59.040 ,6,1,0.,24.0,0.,24.0,0.,24.0,0.,24.0
1979-07-05 12:27:23.040 ,5,1,11.,24.0,0.,24.0,1.,24.0,0.,24.0
1979-07-05 12:27:47.040 ,1,1,0.,24.0,0.,24.0,0.,24.0,0.,24.0
1979-07-05 12:28:11.040 ,2,1,0.,24.0,0.,24.0,0.,24.0,0.,24.0
1979-07-05 12:28:35.040 ,6,1,0.,24.0,0.,24.0,0.,24.0,0.,24.0
1979-07-05 12:28:59.040 ,5,1,16.,24.0,0.,24.0,0.,24.0,0.,24.0
1979-07-05 12:29:23.040 ,1,1,0.,24.0,0.,24.0,0.,24.0,0.,24.0
1979-07-05 12:29:47.040 ,0,0,0.,24.0,0.,24.0,0.,24.0,0.,24.0
1979-07-05 12:30:11.040 ,0,0,0.,24.0,0.,24.0,0.,24.0,0.,24.0
1979-07-05 12:30:35.040 ,5,1,8.,24.0,0.,24.0,0.,24.0,0.,24.0
1979-07-05 12:30:59.040 ,5,0,0.,24.0,0.,24.0,0.,24.0,0.,24.0
1979-07-05 12:31:23.040 ,4,1,0.,24.0,0.,24.0,0.,24.0,0.,24.0
1979-07-05 12:31:47.040 ,4,0,0.,24.0,0.,24.0,0.,24.0,0.,24.0
1979-07-05 12:32:11.040 ,3,1,0.,24.0,0.,24.0,1.,24.0,0.,24.0
1979-07-05 12:32:35.040 ,3,0,0.,24.0,0.,24.0,1.,24.0,0.,24.0
1979-07-05 12:32:59.040 ,2,1,0.,24.0,0.,24.0,0.,24.0,0.,24.0
1979-07-05 12:33:23.040 ,2,0,0.,24.0,0.,24.0,1.,24.0,0.,24.0
1979-07-05 12:33:47.040 ,1,1,0.,24.0,0.,24.0,0.,24.0,0.,24.0
1979-07-05 12:34:11.040 ,1,0,1.,24.0,0.,24.0,0.,24.0,0.,24.0
1979-07-05 12:34:35.040 ,0,1,0.,24.0,0.,24.0,0.,24.0,0.,24.0
1979-07-05 12:34:59.040 ,0,0,0.,24.0,0.,24.0,0.,24.0,0.,24.0
1979-07-05 12:35:23.040 ,0,1,0.,24.0,0.,24.0,0.,24.0,0.,24.0
1979-07-05 12:35:47.040 ,0,0,0.,24.0,0.,24.0,0.,24.0,0.,24.0
1979-07-05 12:36:11.040 ,1,1,0.,24.0,0.,24.0,0.,24.0,0.,24.0
1979-07-05 12:36:35.040 ,1,0,1.,24.0,0.,24.0,0.,24.0,0.,24.0
1979-07-05 12:36:59.040 ,2,1,0.,24.0,0.,24.0,0.,24.0,0.,24.0
1979-07-05 12:37:23.040 ,2,0,0.,24.0,0.,24.0,0.,24.0,0.,24.0
1979-07-05 12:37:47.040 ,3,1,0.,24.0,0.,24.0,0.,24.0,0.,24.0
1979-07-05 12:38:11.040 ,3,0,0.,24.0,0.,24.0,0.,24.0,0.,24.0
1979-07-05 12:38:35.040 ,4,1,0.,24.0,0.,24.0,0.,24.0,0.,24.0
1979-07-05 12:38:59.040 ,4,0,1.,24.0,0.,24.0,0.,24.0,0.,24.0
1979-07-05 12:39:23.040 ,5,1,0.,24.0,0.,24.0,0.,24.0,0.,24.0
1979-07-05 12:39:47.040 ,5,0,1.,24.0,0.,24.0,0.,24.0,0.,24.0
1979-07-05 12:40:11.040 ,6,1,0.,24.0,0.,24.0,1.,24.0,0.,24.0
1979-07-05 12:40:35.040 ,6,0,0.,24.0,0.,24.0,0.,24.0,0.,24.0
1979-07-05 12:40:59.040 ,7,1,8.,24.0,0.,24.0,1.,24.0,0.,24.0
1979-07-05 12:41:23.040 ,7,0,30.,24.0,0.,24.0,0.,24.0,0.,24.0
1979-07-05 12:41:47.040 ,7,1,40.,24.0,0.,24.0,0.,24.0,0.,24.0
1979-07-05 12:42:11.040 ,7,0,28.,24.0,0.,24.0,0.,24.0,0.,24.0
1979-07-05 12:43:23.040 ,0,0,0.,24.0,0.,24.0,0.,24.0,0.,24.0
1979-07-05 12:43:47.040 ,0,0,0.,24.0,0.,24.0,1.,24.0,0.,24.0
1979-07-05 12:44:59.040 ,0,0,0.,24.0,1.,24.0,0.,24.0,0.,24.0
1979-07-05 12:45:23.040 ,0,0,0.,24.0,0.,24.0,1.,24.0,0.,24.0
1979-07-05 12:45:47.040 ,2,1,0.,24.0,0.,24.0,0.,24.0,0.,24.0
1979-07-05 12:46:11.040 ,2,0,0.,24.0,0.,24.0,0.,24.0,0.,24.0
1979-07-05 12:46:35.040 ,1,1,0.,24.0,0.,24.0,0.,24.0,0.,24.0
1979-07-05 12:46:59.040 ,1,0,0.,24.0,0.,24.0,0.,24.0,0.,24.0
1979-07-05 12:47:23.040 ,0,1,1.,24.0,0.,24.0,0.,24.0,0.,24.0
1979-07-05 12:47:47.040 ,0,0,0.,24.0,1.,24.0,0.,24.0,0.,24.0
1979-07-05 12:48:11.040 ,0,1,0.,24.0,0.,24.0,0.,24.0,0.,24.0
1979-07-05 12:48:35.040 ,0,0,0.,24.0,0.,24.0,0.,24.0,0.,24.0
1979-07-05 12:48:59.040 ,1,1,1.,24.0,0.,24.0,0.,24.0,0.,24.0
1979-07-05 12:49:23.040 ,1,0,0.,24.0,0.,24.0,1.,24.0,0.,24.0
1979-07-05 12:49:47.040 ,2,1,1.,24.0,0.,24.0,0.,24.0,0.,24.0
1979-07-05 12:50:11.040 ,2,0,0.,24.0,0.,24.0,0.,24.0,0.,24.0
1979-07-05 12:50:35.040 ,3,1,0.,24.0,0.,24.0,0.,24.0,0.,24.0
1979-07-05 12:50:59.040 ,3,0,0.,24.0,0.,24.0,1.,24.0,0.,24.0
1979-07-05 12:51:23.040 ,4,1,0.,24.0,0.,24.0,0.,24.0,0.,24.0
1979-07-05 12:51:47.040 ,4,0,0.,24.0,0.,24.0,0.,24.0,0.,24.0
1979-07-05 12:52:11.040 ,5,1,0.,24.0,0.,24.0,0.,24.0,0.,24.0
1979-07-05 12:52:35.040 ,5,0,0.,24.0,0.,24.0,0.,24.0,0.,24.0
1979-07-05 12:52:59.040 ,6,1,0.,24.0,0.,24.0,0.,24.0,0.,24.0
1979-07-05 12:53:23.040 ,6,0,1.,24.0,0.,24.0,0.,24.0,0.,24.0
1979-07-05 12:53:47.040 ,7,1,8.,24.0,0.,24.0,0.,24.0,0.,24.0
1979-07-05 12:54:11.040 ,7,0,26.,24.0,0.,24.0,1.,24.0,0.,24.0
1979-07-05 12:54:35.040 ,7,1,37.,24.0,0.,24.0,0.,24.0,0.,24.0
1979-07-05 12:54:59.040 ,7,0,32.,24.0,0.,24.0,0.,24.0,0.,24.0
1979-07-05 12:55:23.040 ,6,1,20.,24.0,0.,24.0,0.,24.0,0.,24.0
1979-07-05 12:55:47.040 ,6,0,0.,24.0,0.,24.0,0.,24.0,0.,24.0
1979-07-05 12:56:11.040 ,5,1,0.,24.0,0.,24.0,0.,24.0,0.,24.0
1979-07-05 12:56:35.040 ,5,0,0.,24.0,0.,24.0,0.,24.0,0.,24.0
1979-07-05 12:56:59.040 ,4,1,0.,24.0,0.,24.0,0.,24.0,0.,24.0
1979-07-05 12:57:23.040 ,4,0,0.,24.0,0.,24.0,1.,24.0,0.,24.0
1979-07-05 12:57:47.040 ,3,1,0.,24.0,0.,24.0,0.,24.0,0.,24.0
1979-07-05 12:58:11.040 ,3,0,0.,24.0,0.,24.0,1.,24.0,0.,24.0
1979-07-05 12:58:35.040 ,2,1,0.,24.0,0.,24.0,0.,24.0,0.,24.0
1979-07-05 12:58:59.040 ,2,0,0.,24.0,0.,24.0,0.,24.0,0.,24.0
1979-07-05 12:59:23.040 ,1,1,0.,24.0,0.,24.0,0.,24.0,0.,24.0
1979-07-05 12:59:47.040 ,1,0,1.,24.0,0.,24.0,1.,24.0,0.,24.0
1979-07-05 13:00:11.040 ,0,1,0.,24.0,0.,24.0,0.,24.0,0.,24.0
1979-07-05 13:00:35.040 ,0,0,0.,24.0,0.,24.0,1.,24.0,0.,24.0
1979-07-05 13:00:59.040 ,0,1,0.,24.0,0.,24.0,1.,24.0,0.,24.0
1979-07-05 13:01:23.040 ,0,0,1.,24.0,0.,24.0,0.,24.0,0.,24.0
1979-07-05 13:01:47.040 ,1,1,0.,24.0,1.,24.0,0.,24.0,0.,24.0
1979-07-05 13:02:11.040 ,1,0,0.,24.0,1.,24.0,0.,24.0,0.,24.0
1979-07-05 13:02:35.040 ,2,1,0.,24.0,0.,24.0,0.,24.0,0.,24.0
1979-07-05 13:02:59.040 ,2,0,0.,24.0,0.,24.0,0.,24.0,0.,24.0
1979-07-05 13:03:23.040 ,3,1,0.,24.0,0.,24.0,0.,24.0,0.,24.0
1979-07-05 13:03:47.040 ,3,0,0.,24.0,0.,24.0,0.,24.0,0.,24.0
1979-07-05 13:04:11.040 ,4,1,0.,24.0,0.,24.0,0.,24.0,0.,24.0
1979-07-05 13:04:35.040 ,4,0,0.,24.0,0.,24.0,0.,24.0,0.,24.0
1979-07-05 13:04:59.040 ,5,1,0.,24.0,0.,24.0,0.,24.0,0.,24.0
1979-07-05 13:05:23.040 ,5,0,0.,24.0,0.,24.0,1.,24.0,0.,24.0
1979-07-05 13:05:47.040 ,6,1,0.,24.0,0.,24.0,0.,24.0,0.,24.0
1979-07-05 13:06:11.040 ,6,0,0.,24.0,1.,24.0,0.,24.0,0.,24.0
1979-07-05 13:06:35.040 ,7,0,4.,24.0,0.,24.0,0.,24.0,0.,24.0
1979-07-05 13:06:59.040 ,7,0,37.,24.0,0.,24.0,0.,24.0,0.,24.0
1979-07-05 13:07:23.040 ,5,1,13.,24.0,0.,24.0,0.,24.0,0.,24.0
1979-07-05 13:07:47.040 ,1,1,0.,24.0,1.,24.0,1.,24.0,0.,24.0
1979-07-05 13:08:11.040 ,2,1,0.,24.0,0.,24.0,0.,24.0,0.,24.0
1979-07-05 13:08:35.040 ,6,1,0.,24.0,0.,24.0,0.,24.0,0.,24.0
1979-07-05 13:08:59.040 ,5,1,25.,24.0,0.,24.0,0.,24.0,0.,24.0
1979-07-05 13:09:23.040 ,1,1,1.,24.0,0.,24.0,0.,24.0,0.,24.0
1979-07-05 13:09:47.040 ,2,1,0.,24.0,0.,24.0,0.,24.0,0.,24.0
1979-07-05 13:10:11.040 ,6,1,0.,24.0,0.,24.0,1.,24.0,0.,24.0
1979-07-05 13:10:35.040 ,5,1,13.,24.0,0.,24.0,0.,24.0,0.,24.0
1979-07-05 13:10:59.040 ,1,1,0.,24.0,0.,24.0,0.,24.0,0.,24.0
1979-07-05 13:11:23.040 ,2,1,2.,24.0,0.,24.0,0.,24.0,0.,24.0
1979-07-05 13:11:47.040 ,6,1,1.,24.0,1.,24.0,0.,24.0,0.,24.0
1979-07-05 13:12:11.040 ,5,1,17.,24.0,0.,24.0,0.,24.0,0.,24.0
1979-07-05 13:12:35.040 ,1,1,0.,24.0,0.,24.0,0.,24.0,0.,24.0
1979-07-05 13:12:59.040 ,0,0,0.,24.0,0.,24.0,0.,24.0,0.,24.0
1979-07-05 13:13:23.040 ,6,1,0.,24.0,0.,24.0,0.,24.0,0.,24.0
1979-07-05 13:13:47.040 ,5,1,17.,24.0,0.,24.0,0.,24.0,0.,24.0
1979-07-05 13:14:11.040 ,1,1,0.,24.0,0.,24.0,1.,24.0,0.,24.0
1979-07-05 13:14:35.040 ,2,1,0.,24.0,0.,24.0,0.,24.0,0.,24.0
1979-07-05 13:14:59.040 ,6,1,0.,24.0,0.,24.0,0.,24.0,0.,24.0
1979-07-05 13:15:23.040 ,5,1,20.,24.0,0.,24.0,0.,24.0,0.,24.0
1979-07-05 13:15:47.040 ,1,1,0.,24.0,0.,24.0,0.,24.0,0.,24.0
1979-07-05 13:16:11.040 ,2,1,0.,24.0,0.,24.0,0.,24.0,0.,24.0
1979-07-05 13:16:35.040 ,6,1,0.,24.0,0.,24.0,0.,24.0,0.,24.0
1979-07-05 13:16:59.040 ,5,1,17.,24.0,0.,24.0,0.,24.0,0.,24.0
1979-07-05 13:17:23.040 ,1,1,0.,24.0,0.,24.0,1.,24.0,0.,24.0
1979-07-05 13:17:47.040 ,0,0,0.,24.0,0.,24.0,0.,24.0,0.,24.0
1979-07-05 13:18:11.040 ,0,0,0.,24.0,0.,24.0,0.,24.0,0.,24.0
1979-07-05 13:18:35.040 ,5,1,14.,24.0,0.,24.0,0.,24.0,0.,24.0
1979-07-05 13:18:59.040 ,5,0,0.,24.0,0.,24.0,0.,24.0,0.,24.0
1979-07-05 13:19:23.040 ,4,1,1.,24.0,0.,24.0,0.,24.0,0.,24.0
1979-07-05 13:19:47.040 ,4,0,0.,24.0,0.,24.0,0.,24.0,0.,24.0
1979-07-05 13:20:11.040 ,3,1,0.,24.0,0.,24.0,1.,24.0,0.,24.0
1979-07-05 13:20:35.040 ,3,0,1.,24.0,0.,24.0,0.,24.0,0.,24.0
1979-07-05 13:20:59.040 ,2,1,0.,24.0,0.,24.0,0.,24.0,0.,24.0
1979-07-05 13:21:23.040 ,2,0,0.,24.0,0.,24.0,1.,24.0,0.,24.0
1979-07-05 13:21:47.040 ,1,1,0.,24.0,0.,24.0,0.,24.0,0.,24.0
1979-07-05 13:22:11.040 ,1,0,0.,24.0,0.,24.0,1.,24.0,0.,24.0
1979-07-05 13:22:35.040 ,0,1,0.,24.0,0.,24.0,0.,24.0,0.,24.0
1979-07-05 13:22:59.040 ,0,0,0.,24.0,0.,24.0,0.,24.0,0.,24.0
1979-07-05 13:23:23.040 ,0,1,0.,24.0,0.,24.0,1.,24.0,0.,24.0
1979-07-05 13:23:47.040 ,0,0,0.,24.0,0.,24.0,0.,24.0,0.,24.0
1979-07-05 13:24:11.040 ,1,1,0.,24.0,0.,24.0,0.,24.0,0.,24.0
1979-07-05 13:24:35.040 ,1,0,1.,24.0,0.,24.0,0.,24.0,0.,24.0
1979-07-05 13:24:59.040 ,2,1,0.,24.0,0.,24.0,1.,24.0,0.,24.0
1979-07-05 13:25:23.040 ,2,0,0.,24.0,0.,24.0,0.,24.0,0.,24.0
1979-07-05 13:25:47.040 ,3,1,1.,24.0,0.,24.0,1.,24.0,0.,24.0
1979-07-05 13:26:11.040 ,3,0,0.,24.0,0.,24.0,0.,24.0,0.,24.0
1979-07-05 13:26:35.040 ,4,1,0.,24.0,0.,24.0,0.,24.0,0.,24.0
1979-07-05 13:26:59.040 ,4,0,0.,24.0,0.,24.0,0.,24.0,0.,24.0
1979-07-05 13:27:23.040 ,5,1,0.,24.0,0.,24.0,0.,24.0,0.,24.0
1979-07-05 13:27:47.040 ,5,0,1.,24.0,0.,24.0,0.,24.0,0.,24.0
1979-07-05 13:28:11.040 ,6,1,0.,24.0,0.,24.0,0.,24.0,0.,24.0
1979-07-05 13:28:35.040 ,6,0,0.,24.0,0.,24.0,0.,24.0,0.,24.0
1979-07-05 13:28:59.040 ,7,1,4.,24.0,0.,24.0,1.,24.0,0.,24.0
1979-07-05 13:29:23.040 ,7,0,24.,24.0,0.,24.0,0.,24.0,0.,24.0
1979-07-05 13:29:47.040 ,7,1,32.,24.0,0.,24.0,0.,24.0,0.,24.0
1979-07-05 13:30:11.040 ,7,0,34.,24.0,0.,24.0,0.,24.0,0.,24.0
1979-07-05 13:30:35.040 ,6,1,20.,24.0,0.,24.0,1.,24.0,0.,24.0
1979-07-05 13:30:59.040 ,6,0,0.,24.0,0.,24.0,0.,24.0,0.,24.0
1979-07-05 13:31:23.040 ,5,1,0.,24.0,0.,24.0,0.,24.0,0.,24.0
1979-07-05 13:31:47.040 ,5,0,0.,24.0,1.,24.0,0.,24.0,0.,24.0
1979-07-05 13:32:11.040 ,4,1,0.,24.0,0.,24.0,0.,24.0,0.,24.0
1979-07-05 13:32:35.040 ,4,0,0.,24.0,1.,24.0,1.,24.0,0.,24.0
1979-07-05 13:32:59.040 ,3,1,0.,24.0,0.,24.0,0.,24.0,0.,24.0
1979-07-05 13:33:23.040 ,3,0,0.,24.0,0.,24.0,0.,24.0,0.,24.0
1979-07-05 13:33:47.040 ,2,1,0.,24.0,0.,24.0,0.,24.0,0.,24.0
1979-07-05 13:34:11.030 ,2,0,0.,24.0,0.,24.0,0.,24.0,0.,24.0
1979-07-05 13:34:35.040 ,1,1,0.,24.0,0.,24.0,2.,24.0,0.,24.0
1979-07-05 13:34:59.040 ,1,0,0.,24.0,0.,24.0,0.,24.0,0.,24.0
1979-07-05 13:35:23.040 ,0,1,0.,24.0,0.,24.0,0.,24.0,0.,24.0
1979-07-05 13:35:47.040 ,0,0,0.,24.0,0.,24.0,0.,24.0,0.,24.0
1979-07-05 13:36:11.040 ,0,1,0.,24.0,0.,24.0,1.,24.0,0.,24.0
1979-07-05 13:36:35.040 ,0,0,0.,24.0,0.,24.0,0.,24.0,0.,24.0
1979-07-05 13:36:59.040 ,1,1,0.,24.0,0.,24.0,0.,24.0,0.,24.0
1979-07-05 13:37:23.040 ,1,0,0.,24.0,0.,24.0,0.,24.0,0.,24.0
1979-07-05 13:37:47.040 ,2,1,0.,24.0,0.,24.0,0.,24.0,0.,24.0
1979-07-05 13:38:11.040 ,2,0,0.,24.0,0.,24.0,0.,24.0,0.,24.0
1979-07-05 13:38:35.040 ,3,1,0.,24.0,0.,24.0,1.,24.0,0.,24.0
1979-07-05 13:38:59.040 ,3,0,1.,24.0,0.,24.0,0.,24.0,0.,24.0
1979-07-05 13:39:23.040 ,4,1,0.,24.0,0.,24.0,0.,24.0,0.,24.0
1979-07-05 13:39:47.040 ,4,0,0.,24.0,0.,24.0,0.,24.0,0.,24.0
1979-07-05 13:40:11.040 ,5,1,0.,24.0,0.,24.0,1.,24.0,0.,24.0
1979-07-05 13:40:35.040 ,5,0,0.,24.0,0.,24.0,0.,24.0,0.,24.0
1979-07-05 13:40:59.040 ,6,1,0.,24.0,0.,24.0,0.,24.0,0.,24.0
1979-07-05 13:41:23.040 ,6,0,0.,24.0,0.,24.0,0.,24.0,0.,24.0
1979-07-05 13:41:47.040 ,7,1,7.,24.0,0.,24.0,0.,24.0,0.,24.0
1979-07-05 13:42:11.040 ,7,0,34.,24.0,0.,24.0,1.,24.0,0.,24.0
1979-07-05 13:42:35.040 ,7,1,26.,24.0,0.,24.0,1.,24.0,0.,24.0
1979-07-05 13:42:59.040 ,7,0,29.,24.0,0.,24.0,0.,24.0,0.,24.0
1979-07-05 13:43:23.040 ,6,1,21.,24.0,0.,24.0,0.,24.0,0.,24.0
1979-07-05 13:43:47.040 ,6,0,0.,24.0,0.,24.0,0.,24.0,0.,24.0
1979-07-05 13:44:11.030 ,5,1,0.,24.0,0.,24.0,0.,24.0,0.,24.0
1979-07-05 13:44:35.030 ,5,0,0.,24.0,0.,24.0,0.,24.0,0.,24.0
1979-07-05 13:45:47.030 ,0,0,0.,24.0,0.,24.0,0.,24.0,0.,24.0
1979-07-05 13:46:11.030 ,0,0,0.,24.0,0.,24.0,1.,24.0,0.,24.0
1979-07-05 13:46:11.030 ,0,0,0.,24.0,0.,24.0,1.,24.0,0.,24.0
1979-07-05 13:46:35.030 ,2,1,0.,24.0,0.,24.0,1.,24.0,0.,24.0
1979-07-05 13:46:59.030 ,2,0,0.,24.0,0.,24.0,0.,24.0,0.,24.0
1979-07-05 13:47:23.030 ,1,1,0.,24.0,1.,24.0,1.,24.0,0.,24.0
1979-07-05 13:47:47.030 ,1,0,0.,24.0,0.,24.0,0.,24.0,0.,24.0
1979-07-05 13:48:11.030 ,0,1,0.,24.0,0.,24.0,1.,24.0,0.,24.0
1979-07-05 13:48:35.030 ,0,0,0.,24.0,0.,24.0,0.,24.0,0.,24.0
1979-07-05 13:48:59.030 ,0,1,0.,24.0,0.,24.0,0.,24.0,0.,24.0
1979-07-05 13:49:23.030 ,0,0,0.,24.0,0.,24.0,0.,24.0,0.,24.0
1979-07-05 13:49:47.030 ,1,1,0.,24.0,0.,24.0,0.,24.0,0.,24.0
1979-07-05 13:50:11.030 ,1,0,0.,24.0,0.,24.0,0.,24.0,0.,24.0
1979-07-05 13:50:35.030 ,2,1,0.,24.0,0.,24.0,0.,24.0,0.,24.0
1979-07-05 13:50:59.030 ,2,0,0.,24.0,0.,24.0,0.,24.0,0.,24.0
1979-07-05 13:51:23.030 ,3,1,0.,24.0,0.,24.0,0.,24.0,0.,24.0
1979-07-05 13:51:47.030 ,3,0,0.,24.0,0.,24.0,0.,24.0,0.,24.0
1979-07-05 13:52:11.030 ,4,1,0.,24.0,0.,24.0,0.,24.0,0.,24.0
1979-07-05 13:52:35.030 ,4,0,0.,24.0,0.,24.0,2.,24.0,0.,24.0
1979-07-05 13:52:59.030 ,5,1,0.,24.0,0.,24.0,0.,24.0,0.,24.0
1979-07-05 13:53:23.030 ,5,0,0.,24.0,0.,24.0,2.,24.0,0.,24.0
1979-07-05 13:53:47.030 ,6,1,0.,24.0,0.,24.0,0.,24.0,0.,24.0
1979-07-05 13:54:11.030 ,6,0,0.,24.0,1.,24.0,0.,24.0,0.,24.0
1979-07-05 13:54:35.030 ,7,0,8.,24.0,0.,24.0,0.,24.0,0.,24.0
1979-07-05 13:54:59.030 ,7,0,29.,24.0,0.,24.0,0.,24.0,0.,24.0
1979-07-05 13:55:23.030 ,5,1,10.,24.0,0.,24.0,0.,24.0,0.,24.0
1979-07-05 13:55:47.030 ,1,1,0.,24.0,0.,24.0,0.,24.0,0.,24.0
1979-07-05 13:56:11.030 ,2,1,0.,24.0,0.,24.0,0.,24.0,0.,24.0
1979-07-05 13:56:35.030 ,6,1,0.,24.0,0.,24.0,2.,24.0,0.,24.0
1979-07-05 13:56:59.030 ,5,1,22.,24.0,0.,24.0,0.,24.0,0.,24.0
1979-07-05 13:57:23.030 ,1,1,0.,24.0,0.,24.0,0.,24.0,0.,24.0
1979-07-05 13:57:47.030 ,2,1,0.,24.0,0.,24.0,1.,24.0,0.,24.0
1979-07-05 13:58:11.030 ,6,1,0.,24.0,0.,24.0,0.,24.0,0.,24.0
1979-07-05 13:58:35.030 ,5,1,17.,24.0,0.,24.0,0.,24.0,0.,24.0
1979-07-05 13:58:59.030 ,1,1,1.,24.0,0.,24.0,0.,24.0,0.,24.0
1979-07-05 13:59:23.030 ,2,1,0.,24.0,0.,24.0,0.,24.0,0.,24.0
1979-07-05 13:59:47.030 ,6,1,0.,24.0,0.,24.0,3.,24.0,0.,24.0
1979-07-05 14:00:11.030 ,5,1,14.,24.0,0.,24.0,0.,24.0,0.,24.0
1979-07-05 14:00:35.030 ,1,1,0.,24.0,0.,24.0,0.,24.0,0.,24.0
1979-07-05 14:00:59.030 ,2,1,1.,24.0,0.,24.0,0.,24.0,0.,24.0
1979-07-05 14:01:23.030 ,6,1,0.,24.0,0.,24.0,0.,24.0,0.,24.0
1979-07-05 14:01:47.030 ,5,1,19.,24.0,0.,24.0,0.,24.0,0.,24.0
1979-07-05 14:02:11.030 ,1,1,0.,24.0,0.,24.0,0.,24.0,0.,24.0
1979-07-05 14:02:35.030 ,2,1,0.,24.0,0.,24.0,2.,24.0,0.,24.0
1979-07-05 14:02:59.030 ,6,1,0.,24.0,0.,24.0,0.,24.0,0.,24.0
1979-07-05 14:03:23.030 ,5,1,17.,24.0,0.,24.0,0.,24.0,0.,24.0
1979-07-05 14:03:47.030 ,1,1,0.,24.0,0.,24.0,0.,24.0,0.,24.0
1979-07-05 14:04:11.030 ,2,1,0.,24.0,0.,24.0,0.,24.0,0.,24.0
1979-07-05 14:04:35.030 ,6,1,0.,24.0,0.,24.0,0.,24.0,0.,24.0
1979-07-05 14:04:59.030 ,5,1,13.,24.0,0.,24.0,0.,24.0,0.,24.0
1979-07-05 14:05:23.030 ,1,1,0.,24.0,0.,24.0,0.,24.0,0.,24.0
1979-07-05 14:05:47.030 ,0,0,0.,24.0,0.,24.0,0.,24.0,0.,24.0
1979-07-05 14:06:11.030 ,0,0,0.,24.0,0.,24.0,1.,24.0,0.,24.0
1979-07-05 14:06:35.030 ,5,1,13.,24.0,0.,24.0,0.,24.0,0.,24.0
1979-07-05 14:06:59.030 ,5,0,0.,24.0,0.,24.0,1.,24.0,0.,24.0
1979-07-05 14:07:23.030 ,4,1,0.,24.0,0.,24.0,0.,24.0,0.,24.0
1979-07-05 14:07:47.030 ,4,0,0.,24.0,0.,24.0,0.,24.0,0.,24.0
1979-07-05 14:08:11.030 ,3,1,0.,24.0,0.,24.0,1.,24.0,0.,24.0
1979-07-05 14:08:35.030 ,3,0,1.,24.0,0.,24.0,0.,24.0,0.,24.0
1979-07-05 14:08:59.030 ,2,1,0.,24.0,0.,24.0,0.,24.0,0.,24.0
1979-07-05 14:09:23.030 ,2,0,0.,24.0,0.,24.0,0.,24.0,0.,24.0
1979-07-05 14:09:47.030 ,1,1,0.,24.0,0.,24.0,0.,24.0,0.,24.0
1979-07-05 14:10:11.030 ,1,0,0.,24.0,0.,24.0,0.,24.0,0.,24.0
1979-07-05 14:10:35.030 ,0,1,0.,24.0,0.,24.0,0.,24.0,0.,24.0
1979-07-05 14:10:59.030 ,0,0,0.,24.0,0.,24.0,0.,24.0,0.,24.0
1979-07-05 14:11:23.030 ,0,1,0.,24.0,0.,24.0,1.,24.0,0.,24.0
1979-07-05 14:11:47.030 ,0,0,1.,24.0,0.,24.0,0.,24.0,0.,24.0
1979-07-05 14:12:11.030 ,1,1,0.,24.0,0.,24.0,0.,24.0,0.,24.0
1979-07-05 14:12:35.030 ,1,0,0.,24.0,0.,24.0,0.,24.0,0.,24.0
1979-07-05 14:12:59.030 ,2,1,0.,24.0,0.,24.0,0.,24.0,0.,24.0
1979-07-05 14:13:23.030 ,2,0,0.,24.0,0.,24.0,0.,24.0,0.,24.0
1979-07-05 14:13:47.030 ,3,1,1.,24.0,0.,24.0,0.,24.0,0.,24.0
1979-07-05 14:14:11.030 ,3,0,0.,24.0,0.,24.0,0.,24.0,0.,24.0
1979-07-05 14:14:35.030 ,4,1,0.,24.0,0.,24.0,0.,24.0,0.,24.0
1979-07-05 14:14:59.030 ,4,0,0.,24.0,0.,24.0,1.,24.0,0.,24.0
1979-07-05 14:15:23.030 ,5,1,0.,24.0,1.,24.0,0.,24.0,0.,24.0
1979-07-05 14:15:47.030 ,5,0,0.,24.0,0.,24.0,1.,24.0,0.,24.0
1979-07-05 14:16:11.030 ,6,1,0.,24.0,0.,24.0,0.,24.0,0.,24.0
1979-07-05 14:16:35.030 ,6,0,0.,24.0,0.,24.0,0.,24.0,0.,24.0
1979-07-05 14:16:59.030 ,7,1,8.,24.0,0.,24.0,0.,24.0,0.,24.0
1979-07-05 14:17:23.030 ,7,0,32.,24.0,0.,24.0,0.,24.0,0.,24.0
1979-07-05 14:17:47.030 ,7,1,31.,24.0,0.,24.0,0.,24.0,0.,24.0
1979-07-05 14:18:11.030 ,7,0,27.,24.0,0.,24.0,0.,24.0,0.,24.0
1979-07-05 14:18:35.030 ,6,1,22.,24.0,0.,24.0,0.,24.0,0.,24.0
1979-07-05 14:18:59.030 ,6,0,0.,24.0,0.,24.0,0.,24.0,0.,24.0
1979-07-05 14:19:23.030 ,5,1,1.,24.0,0.,24.0,1.,24.0,0.,24.0
1979-07-05 14:19:47.030 ,5,0,0.,24.0,1.,24.0,1.,24.0,0.,24.0
1979-07-05 14:20:11.030 ,4,1,0.,24.0,0.,24.0,0.,24.0,0.,24.0
1979-07-05 14:20:35.030 ,4,0,0.,24.0,0.,24.0,1.,24.0,0.,24.0
1979-07-05 14:20:59.030 ,3,1,0.,24.0,0.,24.0,0.,24.0,0.,24.0
1979-07-05 14:21:23.030 ,3,0,0.,24.0,0.,24.0,0.,24.0,0.,24.0
1979-07-05 14:21:47.030 ,2,1,0.,24.0,0.,24.0,0.,24.0,0.,24.0
1979-07-05 14:22:11.030 ,2,0,0.,24.0,0.,24.0,0.,24.0,0.,24.0
1979-07-05 14:22:35.030 ,1,1,0.,24.0,0.,24.0,0.,24.0,0.,24.0
1979-07-05 14:22:59.030 ,1,0,0.,24.0,0.,24.0,0.,24.0,0.,24.0
1979-07-05 14:23:23.030 ,0,1,1.,24.0,0.,24.0,0.,24.0,0.,24.0
1979-07-05 14:23:47.030 ,0,0,0.,24.0,0.,24.0,0.,24.0,0.,24.0
1979-07-05 14:24:11.030 ,0,1,0.,24.0,0.,24.0,0.,24.0,0.,24.0
1979-07-05 14:24:35.030 ,0,0,0.,24.0,1.,24.0,0.,24.0,0.,24.0
1979-07-05 14:24:59.030 ,1,1,0.,24.0,0.,24.0,0.,24.0,0.,24.0
1979-07-05 14:25:23.030 ,1,0,1.,24.0,0.,24.0,0.,24.0,0.,24.0
1979-07-05 14:25:47.030 ,2,1,0.,24.0,0.,24.0,1.,24.0,0.,24.0
1979-07-05 14:26:11.030 ,2,0,0.,24.0,0.,24.0,0.,24.0,0.,24.0
1979-07-05 14:26:35.030 ,3,1,0.,24.0,0.,24.0,0.,24.0,0.,24.0
1979-07-05 14:26:59.030 ,3,0,0.,24.0,0.,24.0,0.,24.0,0.,24.0
1979-07-05 14:27:23.030 ,4,1,0.,24.0,0.,24.0,0.,24.0,0.,24.0
1979-07-05 14:27:47.030 ,4,0,0.,24.0,0.,24.0,0.,24.0,0.,24.0
1979-07-05 14:28:11.030 ,5,1,1.,24.0,0.,24.0,0.,24.0,0.,24.0
1979-07-05 14:28:35.030 ,5,0,0.,24.0,0.,24.0,1.,24.0,0.,24.0
1979-07-05 14:28:59.030 ,6,1,0.,24.0,0.,24.0,0.,24.0,0.,24.0
1979-07-05 14:29:23.030 ,6,0,1.,24.0,0.,24.0,0.,24.0,0.,24.0
1979-07-05 14:29:47.030 ,7,1,6.,24.0,0.,24.0,0.,24.0,0.,24.0
1979-07-05 14:30:11.030 ,7,0,29.,24.0,0.,24.0,0.,24.0,0.,24.0
1979-07-05 14:30:35.030 ,7,1,22.,24.0,0.,24.0,0.,24.0,0.,24.0
1979-07-05 14:30:59.030 ,0,0,31.,24.0,0.,24.0,0.,24.0,0.,24.0
1979-07-05 14:31:23.030 ,6,1,22.,24.0,0.,24.0,0.,24.0,0.,24.0
1979-07-05 14:31:47.030 ,6,0,1.,24.0,1.,24.0,0.,24.0,0.,24.0
1979-07-05 14:32:11.030 ,5,1,0.,24.0,0.,24.0,0.,24.0,0.,24.0
1979-07-05 14:32:35.030 ,5,0,1.,24.0,0.,24.0,1.,24.0,0.,24.0
1979-07-05 14:32:59.030 ,4,1,0.,24.0,0.,24.0,0.,24.0,0.,24.0
1979-07-05 14:33:23.030 ,4,0,1.,24.0,0.,24.0,0.,24.0,0.,24.0
1979-07-05 14:33:47.030 ,3,1,0.,24.0,0.,24.0,0.,24.0,0.,24.0
1979-07-05 14:34:11.030 ,3,0,0.,24.0,0.,24.0,0.,24.0,0.,24.0
1979-07-05 14:34:35.030 ,2,1,0.,24.0,0.,24.0,0.,24.0,0.,24.0
1979-07-05 14:34:59.030 ,2,0,0.,24.0,0.,24.0,0.,24.0,0.,24.0
1979-07-05 14:35:23.030 ,1,1,0.,24.0,0.,24.0,0.,24.0,0.,24.0
1979-07-05 14:35:47.030 ,1,0,0.,24.0,0.,24.0,0.,24.0,0.,24.0
1979-07-05 14:36:11.030 ,0,1,1.,24.0,0.,24.0,0.,24.0,0.,24.0